Location: Tel Aviv
(32.0670°N, 34.7670°E)
Time: 02:18:27
(UTC+02:00)

Tiros 1 despin weight - All Passes

Search period start: 07 November 2024 00:00
Search period end: 17 November 2024 00:00
Orbit: 571 x 611 km, 48.2° (Epoch: 06 November)

Date Brightness Start Highest point End Pass type
(mag) Time Alt. Az. Time Alt. Az. Time Alt. Az.
07 Nov - 03:50:41 10° SSE 03:53:19 16° SE 03:55:57 10° E visible
07 Nov - 05:29:29 10° WSW 05:33:53 68° NW 05:38:15 10° NE visible
07 Nov - 07:12:39 10° WNW 07:15:26 16° NNW 07:18:12 10° NNE daylight
07 Nov - 10:37:49 10° NNW 10:40:23 15° NNE 10:42:56 10° ENE daylight
07 Nov - 12:17:43 10° NW 12:21:59 63° NE 12:26:12 10° ESE daylight
07 Nov - 13:59:53 10° W 14:02:31 16° SW 14:05:09 10° SSW daylight
08 Nov - 03:57:01 10° SSW 04:00:52 29° SE 04:04:41 10° ENE visible
08 Nov - 05:37:32 10° WSW 05:41:42 39° NNW 05:45:50 10° NE visible
08 Nov - 07:21:44 10° NW 07:23:34 12° NNW 07:25:25 10° N daylight
08 Nov - 10:45:07 10° NNW 10:48:27 21° NNE 10:51:45 10° ENE daylight
08 Nov - 12:25:26 10° NW 12:29:42 71° SW 12:33:57 10° SE daylight
09 Nov - 04:04:06 10° SW 04:08:28 55° SE 04:12:46 10° ENE visible
09 Nov - 05:45:54 10° W 05:49:36 25° NNW 05:53:16 10° NNE daylight
09 Nov - 07:31:19 10° NNW 07:31:46 10° N 07:32:12 10° N daylight
09 Nov - 09:13:06 10° N 09:14:22 11° NNE 09:15:39 10° NNE daylight
09 Nov - 10:52:30 10° NNW 10:56:24 32° NNE 11:00:14 10° E daylight
09 Nov - 12:33:22 10° WNW 12:37:19 36° SW 12:41:14 10° SSE daylight
10 Nov - 02:33:34 10° SSE 02:35:37 13° SE 02:37:40 10° E visible
10 Nov - 04:11:39 10° SW 04:16:06 80° NW 04:20:31 10° NE visible
10 Nov - 05:54:32 10° WNW 05:57:34 18° NNW 06:00:35 10° NNE daylight
10 Nov - 09:20:09 10° NNW 09:22:30 14° NNE 09:24:50 10° NE daylight
10 Nov - 10:59:58 10° NW 11:04:11 53° NE 11:08:22 10° ESE daylight
10 Nov - 12:41:45 10° W 12:44:49 19° SW 12:47:52 10° S daylight
11 Nov - 02:39:25 10° S 02:43:04 25° SE 02:46:40 10° ENE visible
11 Nov - 04:19:32 10° WSW 04:23:49 46° NW 04:28:03 10° NE visible
11 Nov - 06:03:25 10° NW 06:05:36 13° NNW 06:07:47 10° NNE daylight
11 Nov - 09:27:22 10° NNW 09:30:31 19° NNE 09:33:39 10° ENE daylight
11 Nov - 11:07:33 10° NW 11:11:53 84° SW 11:16:09 10° SE daylight
12 Nov - 02:46:17 10° SSW 02:50:33 46° SE 02:54:48 10° ENE visible
12 Nov - 04:27:44 10° W 04:31:36 29° NNW 04:35:27 10° NNE visible
12 Nov - 06:12:37 10° NNW 06:13:42 11° N 06:14:47 10° N daylight
12 Nov - 07:55:21 10° N 07:56:19 11° N 07:57:17 10° NNE daylight
12 Nov - 09:34:38 10° NNW 09:38:25 28° NNE 09:42:08 10° E daylight
12 Nov - 11:15:20 10° WNW 11:19:25 44° SW 11:23:29 10° SSE daylight
13 Nov - 01:16:41 10° SE 01:17:41 11° SE 01:18:41 10° ESE night (unlit)
13 Nov - 02:53:37 10° SW 02:58:05 86° SE 03:02:33 10° NE visible
13 Nov - 04:36:12 10° WNW 04:39:28 20° NNW 04:42:44 10° NNE visible
13 Nov - 08:02:16 10° NNW 08:04:23 13° NNE 08:06:30 10° NE daylight
13 Nov - 09:42:00 10° NW 09:46:10 45° NE 09:50:18 10° ESE daylight
13 Nov - 11:23:28 10° WNW 11:26:52 23° SW 11:30:16 10° S daylight
14 Nov - 01:21:42 10° S 01:25:02 21° SE 01:28:22 10° E night (unlit)
14 Nov - 03:01:20 10° WSW 03:05:42 53° NW 03:10:04 10° NE visible
14 Nov - 04:44:55 10° NW 04:47:24 15° NNW 04:49:53 10° NNE visible
14 Nov - 08:09:22 10° NNW 08:12:21 18° NNE 08:15:18 10° ENE daylight
14 Nov - 09:49:28 10° NW 09:53:48 82° NE 09:58:05 10° SE daylight
14 Nov - 11:32:35 10° WSW 11:34:12 12° SW 11:35:51 10° SSW daylight
15 Nov - 01:28:16 10° SSW 01:32:26 38° SE 01:36:35 10° ENE night (unlit)
15 Nov - 03:09:21 10° W 03:13:24 33° NNW 03:17:25 10° NNE visible
15 Nov - 04:53:53 10° NNW 04:55:24 11° NNW 04:56:55 10° N visible
15 Nov - 06:37:25 10° N 06:38:01 10° N 06:38:36 10° NNE daylight
15 Nov - 08:16:33 10° NNW 08:20:11 25° NNE 08:23:47 10° E daylight
15 Nov - 09:57:05 10° WNW 10:01:18 53° SW 10:05:28 10° SSE daylight
16 Nov - 01:35:25 10° SW 01:39:52 73° SE 01:44:19 10° NE night (unlit)
16 Nov - 03:17:39 10° WNW 03:21:09 22° NNW 03:24:38 10° NNE visible
16 Nov - 06:44:09 10° N 06:46:02 12° NNE 06:47:54 10° NE daylight
16 Nov - 08:23:48 10° NW 08:27:55 39° NNE 08:31:57 10° ESE daylight
16 Nov - 10:05:00 10° WNW 10:08:41 28° SW 10:12:21 10° SSE daylight
